Time,TemperatureF,DewpointF,PressureIn,WindDirection,WindDirectionDegrees,WindSpeedMPH,WindSpeedGustMPH,Humidity,HourlyPrecipIn,Conditions,Clouds,dailyrainin,SoftwareType,DateUTC
2013-05-09 00:01:00,63.0,-99.9,30.14,WNW,286,2.0,6.0,-999,0.00,,,0.00,,2013-05-09 07:01:00,
2013-05-09 00:12:00,63.0,-99.9,30.14,WNW,285,1.0,3.0,-999,0.00,,,0.00,,2013-05-09 07:12:00,
2013-05-09 00:22:00,63.0,-99.9,30.14,WNW,285,1.0,3.0,-999,0.00,,,0.00,,2013-05-09 07:22:00,
2013-05-09 00:32:00,63.0,-99.9,30.15,WNW,285,0.0,0.0,-999,0.00,,,0.00,,2013-05-09 07:32:00,
2013-05-09 00:43:00,63.0,-99.9,30.14,West,262,0.0,0.0,-999,0.00,,,0.00,,2013-05-09 07:43:00,
2013-05-09 00:52:00,63.0,-99.9,30.14,West,262,0.0,0.0,-999,0.00,,,0.00,,2013-05-09 07:52:00,
2013-05-09 01:02:00,63.0,-99.9,30.15,West,262,0.0,0.0,-999,0.00,,,0.00,,2013-05-09 08:02:00,
2013-05-09 01:11:00,63.0,-99.9,30.14,West,262,0.0,0.0,-999,0.00,,,0.00,,2013-05-09 08:11:00,
2013-05-09 01:22:00,63.0,-99.9,30.14,West,262,0.0,0.0,-999,0.00,,,0.00,,2013-05-09 08:22:00,
2013-05-09 01:32:00,62.0,-99.9,30.14,West,262,0.0,0.0,-999,0.00,,,0.00,,2013-05-09 08:32:00,
2013-05-09 01:42:00,62.0,-99.9,30.14,West,262,0.0,0.0,-999,0.00,,,0.00,,2013-05-09 08:42:00,
2013-05-09 01:52:00,62.0,-99.9,30.14,West,262,0.0,0.0,-999,0.00,,,0.00,,2013-05-09 08:52:00,
2013-05-09 02:02:00,62.0,-99.9,30.14,West,262,0.0,0.0,-999,0.00,,,0.00,,2013-05-09 09:02:00,
2013-05-09 02:12:00,62.0,-99.9,30.14,West,262,0.0,0.0,-999,0.00,,,0.00,,2013-05-09 09:12:00,
2013-05-09 02:22:00,62.0,-99.9,30.13,West,262,0.0,0.0,-999,0.00,,,0.00,,2013-05-09 09:22:00,
2013-05-09 02:32:00,62.0,-99.9,30.13,West,262,0.0,0.0,-999,0.00,,,0.00,,2013-05-09 09:32:00,
2013-05-09 02:43:00,61.0,-99.9,30.14,West,262,0.0,0.0,-999,0.00,,,0.00,,2013-05-09 09:43:00,
2013-05-09 02:51:00,61.0,-99.9,30.13,West,262,0.0,0.0,-999,0.00,,,0.00,,2013-05-09 09:51:00,
2013-05-09 02:53:00,61.0,-99.9,30.14,West,262,0.0,0.0,-999,0.00,,,0.00,,2013-05-09 09:53:00,
2013-05-09 03:02:00,61.0,-99.9,30.13,West,262,0.0,0.0,-999,0.00,,,0.00,,2013-05-09 10:02:00,
2013-05-09 03:12:00,61.0,-99.9,30.13,West,262,0.0,0.0,-999,0.00,,,0.00,,2013-05-09 10:12:00,
2013-05-09 03:23:00,61.0,-99.9,30.13,West,262,0.0,0.0,-999,0.00,,,0.00,,2013-05-09 10:23:00,
2013-05-09 03:33:00,61.0,-99.9,30.13,West,262,0.0,0.0,-999,0.00,,,0.00,,2013-05-09 10:33:00,
2013-05-09 03:42:00,61.0,-99.9,30.13,West,262,0.0,0.0,-999,0.00,,,0.00,,2013-05-09 10:42:00,
2013-05-09 04:02:00,60.0,-99.9,30.13,West,262,0.0,0.0,-999,0.00,,,0.00,,2013-05-09 11:02:00,
2013-05-09 04:12:00,60.0,-99.9,30.12,West,262,0.0,0.0,-999,0.00,,,0.00,,2013-05-09 11:12:00,
2013-05-09 04:22:00,60.0,-99.9,30.12,West,262,0.0,0.0,-999,0.00,,,0.00,,2013-05-09 11:22:00,
2013-05-09 04:32:00,60.0,-99.9,30.13,West,262,0.0,0.0,-999,0.00,,,0.00,,2013-05-09 11:32:00,
2013-05-09 04:42:00,59.0,-99.9,30.13,WSW,246,0.0,0.0,-999,0.00,,,0.00,,2013-05-09 11:42:00,
2013-05-09 04:52:00,59.0,-99.9,30.13,WSW,246,0.0,0.0,-999,0.00,,,0.00,,2013-05-09 11:52:00,
2013-05-09 05:02:00,57.0,-99.9,30.13,SW,215,0.0,0.0,-999,0.00,,,0.00,,2013-05-09 12:02:00,
2013-05-09 05:12:00,57.0,-99.9,30.13,SW,215,0.0,0.0,-999,0.00,,,0.00,,2013-05-09 12:12:00,
2013-05-09 05:22:00,57.0,-99.9,30.13,SW,215,0.0,0.0,-999,0.00,,,0.00,,2013-05-09 12:22:00,
2013-05-09 05:32:00,57.0,-99.9,30.13,SSW,213,0.0,0.0,-999,0.00,,,0.00,,2013-05-09 12:32:00,
2013-05-09 05:43:00,56.0,-99.9,30.13,SSW,213,0.0,0.0,-999,0.00,,,0.00,,2013-05-09 12:43:00,
2013-05-09 05:52:00,56.0,-99.9,30.13,SSW,213,0.0,0.0,-999,0.00,,,0.00,,2013-05-09 12:52:00,
2013-05-09 06:02:00,56.0,-99.9,30.13,SSW,213,0.0,0.0,-999,0.00,,,0.00,,2013-05-09 13:02:00,
2013-05-09 06:12:00,56.0,-99.9,30.14,SSW,213,0.0,0.0,-999,0.00,,,0.00,,2013-05-09 13:12:00,
2013-05-09 06:22:00,56.0,-99.9,30.14,SSW,213,0.0,0.0,-999,0.00,,,0.00,,2013-05-09 13:22:00,
2013-05-09 06:32:00,56.0,-99.9,30.14,SSW,213,0.0,0.0,-999,0.00,,,0.00,,2013-05-09 13:32:00,
2013-05-09 06:42:00,58.0,-99.9,30.14,SSW,213,0.0,0.0,-999,0.00,,,0.00,,2013-05-09 13:42:00,
2013-05-09 06:52:00,58.0,-99.9,30.14,SSW,213,0.0,0.0,-999,0.00,,,0.00,,2013-05-09 13:52:00,
2013-05-09 07:02:00,57.0,-99.9,30.15,SSE,164,0.0,4.0,-999,0.00,,,0.00,,2013-05-09 14:02:00,
2013-05-09 07:11:00,57.0,-99.9,30.15,South,174,1.0,8.0,-999,0.00,,,0.00,,2013-05-09 14:11:00,
2013-05-09 07:22:00,57.0,-99.9,30.15,South,174,1.0,8.0,-999,0.00,,,0.00,,2013-05-09 14:22:00,
2013-05-09 07:32:00,58.0,-99.9,30.16,South,184,0.0,5.0,-999,0.00,,,0.00,,2013-05-09 14:32:00,
2013-05-09 07:42:00,59.0,-99.9,30.16,SSE,157,0.0,5.0,-999,0.00,,,0.00,,2013-05-09 14:42:00,
2013-05-09 07:52:00,59.0,-99.9,30.16,SSE,157,0.0,5.0,-999,0.00,,,0.00,,2013-05-09 14:52:00,
2013-05-09 08:02:00,60.0,-99.9,30.16,South,174,0.0,5.0,-999,0.00,,,0.00,,2013-05-09 15:02:00,
2013-05-09 08:11:00,63.0,-99.9,30.16,South,185,0.0,3.0,-999,0.00,,,0.00,,2013-05-09 15:11:00,
2013-05-09 08:22:00,63.0,-99.9,30.16,South,185,0.0,3.0,-999,0.00,,,0.00,,2013-05-09 15:22:00,
2013-05-09 08:33:00,64.0,-99.9,30.16,SE,142,0.0,6.0,-999,0.00,,,0.00,,2013-05-09 15:33:00,
2013-05-09 08:43:00,65.0,-99.9,30.16,SE,142,0.0,0.0,-999,0.00,,,0.00,,2013-05-09 15:43:00,
2013-05-09 08:53:00,65.0,-99.9,30.16,SE,142,0.0,0.0,-999,0.00,,,0.00,,2013-05-09 15:53:00,
2013-05-09 09:03:00,66.0,-99.9,30.16,SE,142,0.0,0.0,-999,0.00,,,0.00,,2013-05-09 16:03:00,
2013-05-09 09:12:00,67.0,-99.9,30.16,SE,142,0.0,0.0,-999,0.00,,,0.00,,2013-05-09 16:12:00,
2013-05-09 09:23:00,67.0,-99.9,30.16,SE,142,0.0,0.0,-999,0.00,,,0.00,,2013-05-09 16:23:00,
2013-05-09 09:33:00,67.0,-99.9,30.16,SE,142,0.0,0.0,-999,0.00,,,0.00,,2013-05-09 16:33:00,
2013-05-09 09:42:00,70.0,-99.9,30.15,ESE,108,0.0,3.0,-999,0.00,,,0.00,,2013-05-09 16:42:00,
2013-05-09 09:53:00,70.0,-99.9,30.15,ESE,108,0.0,3.0,-999,0.00,,,0.00,,2013-05-09 16:53:00,
2013-05-09 10:02:00,71.0,-99.9,30.15,NNE,32,0.0,3.0,-999,0.00,,,0.00,,2013-05-09 17:02:00,
2013-05-09 10:12:00,71.0,-99.9,30.15,NNE,32,0.0,3.0,-999,0.00,,,0.00,,2013-05-09 17:12:00,
2013-05-09 10:22:00,71.0,-99.9,30.15,NNE,25,0.0,3.0,-999,0.00,,,0.00,,2013-05-09 17:22:00,
2013-05-09 10:32:00,72.0,-99.9,30.15,NE,36,0.0,7.0,-999,0.00,,,0.00,,2013-05-09 17:32:00,
2013-05-09 10:42:00,74.0,-99.9,30.14,SSW,203,0.0,5.0,-999,0.00,,,0.00,,2013-05-09 17:42:00,
2013-05-09 10:55:00,74.0,-99.9,30.14,SSW,203,0.0,5.0,-999,0.00,,,0.00,,2013-05-09 17:55:00,
2013-05-09 11:02:00,72.0,-99.9,30.14,SW,225,3.0,8.0,-999,0.00,,,0.00,,2013-05-09 18:02:00,
2013-05-09 11:12:00,72.0,-99.9,30.14,SW,225,0.0,0.0,-999,0.00,,,0.00,,2013-05-09 18:12:00,
2013-05-09 11:22:00,72.0,-99.9,30.14,SW,225,0.0,0.0,-999,0.00,,,0.00,,2013-05-09 18:22:00,
2013-05-09 11:32:00,76.0,-99.9,30.13,SE,144,0.0,0.0,-999,0.00,,,0.00,,2013-05-09 18:32:00,
2013-05-09 11:42:00,75.0,-99.9,30.13,SW,229,0.0,3.0,-999,0.00,,,0.00,,2013-05-09 18:42:00,
2013-05-09 11:52:00,75.0,-99.9,30.13,SW,229,0.0,3.0,-999,0.00,,,0.00,,2013-05-09 18:52:00,
2013-05-09 12:01:00,76.0,-99.9,30.12,WSW,239,0.0,1.0,-999,0.00,,,0.00,,2013-05-09 19:01:00,
2013-05-09 12:12:00,76.0,-99.9,30.12,WSW,239,0.0,1.0,-999,0.00,,,0.00,,2013-05-09 19:12:00,
2013-05-09 12:21:00,77.0,-99.9,30.12,WSW,251,0.0,0.0,-999,0.00,,,0.00,,2013-05-09 19:21:00,
2013-05-09 12:32:00,78.0,-99.9,30.11,SSE,168,1.0,8.0,-999,0.00,,,0.00,,2013-05-09 19:32:00,
2013-05-09 12:42:00,78.0,-99.9,30.11,SSW,192,0.0,0.0,-999,0.00,,,0.00,,2013-05-09 19:42:00,
2013-05-09 12:52:00,78.0,-99.9,30.11,SSW,192,0.0,0.0,-999,0.00,,,0.00,,2013-05-09 19:52:00,
2013-05-09 13:02:00,79.0,-99.9,30.10,NE,42,0.0,0.0,-999,0.00,,,0.00,,2013-05-09 20:02:00,
2013-05-09 13:11:00,78.0,-99.9,30.10,NNE,15,3.0,0.0,-999,0.00,,,0.00,,2013-05-09 20:11:00,
2013-05-09 13:22:00,78.0,-99.9,30.10,NNE,15,3.0,0.0,-999,0.00,,,0.00,,2013-05-09 20:22:00,
2013-05-09 13:32:00,77.0,-99.9,30.09,NNW,348,4.0,8.0,-999,0.00,,,0.00,,2013-05-09 20:32:00,
2013-05-09 13:42:00,78.0,-99.9,30.08,NNW,331,0.0,10.0,-999,0.00,,,0.00,,2013-05-09 20:42:00,
2013-05-09 13:52:00,78.0,-99.9,30.08,NNW,331,0.0,10.0,-999,0.00,,,0.00,,2013-05-09 20:52:00,
2013-05-09 14:02:00,78.0,-99.9,30.08,SW,219,0.0,0.0,-999,0.00,,,0.00,,2013-05-09 21:02:00,
2013-05-09 14:12:00,78.0,-99.9,30.08,West,279,0.0,0.0,-999,0.00,,,0.00,,2013-05-09 21:12:00,
2013-05-09 14:22:00,78.0,-99.9,30.08,West,279,0.0,0.0,-999,0.00,,,0.00,,2013-05-09 21:22:00,
2013-05-09 14:33:00,78.0,-99.9,30.07,NNW,338,0.0,0.0,-999,0.00,,,0.00,,2013-05-09 21:33:00,
2013-05-09 14:43:00,79.0,-99.9,30.06,WNW,282,2.0,0.0,-999,0.00,,,0.00,,2013-05-09 21:43:00,
2013-05-09 14:53:00,79.0,-99.9,30.06,WNW,282,2.0,0.0,-999,0.00,,,0.00,,2013-05-09 21:53:00,
2013-05-09 15:03:00,79.0,-99.9,30.06,NNW,344,2.0,7.0,-999,0.00,,,0.00,,2013-05-09 22:03:00,
2013-05-09 15:13:00,78.0,-99.9,30.06,NW,305,1.0,0.0,-999,0.00,,,0.00,,2013-05-09 22:13:00,
2013-05-09 15:23:00,78.0,-99.9,30.06,NW,305,1.0,0.0,-999,0.00,,,0.00,,2013-05-09 22:23:00,
2013-05-09 15:33:00,78.0,-99.9,30.06,WSW,247,0.0,0.0,-999,0.00,,,0.00,,2013-05-09 22:33:00,
2013-05-09 15:42:00,78.0,-99.9,30.05,West,274,4.0,4.0,-999,0.00,,,0.00,,2013-05-09 22:42:00,
2013-05-09 15:52:00,78.0,-99.9,30.05,West,274,4.0,4.0,-999,0.00,,,0.00,,2013-05-09 22:52:00,
2013-05-09 16:03:00,78.0,-99.9,30.05,NNE,19,2.0,3.0,-999,0.00,,,0.00,,2013-05-09 23:03:00,
2013-05-09 16:12:00,77.0,-99.9,30.05,West,275,3.0,0.0,-999,0.00,,,0.00,,2013-05-09 23:12:00,
2013-05-09 16:22:00,77.0,-99.9,30.05,West,275,3.0,0.0,-999,0.00,,,0.00,,2013-05-09 23:22:00,
2013-05-09 16:32:00,78.0,-99.9,30.04,WNW,300,2.0,6.0,-999,0.00,,,0.00,,2013-05-09 23:32:00,
2013-05-09 16:43:00,79.0,-99.9,30.04,WNW,296,3.0,3.0,-999,0.00,,,0.00,,2013-05-09 23:43:00,
2013-05-09 16:52:00,79.0,-99.9,30.04,WNW,296,3.0,3.0,-999,0.00,,,0.00,,2013-05-09 23:52:00,
2013-05-09 17:01:00,80.0,-99.9,30.04,WNW,300,1.0,0.0,-999,0.00,,,0.00,,2013-05-10 00:01:00,
2013-05-09 17:11:00,79.0,-99.9,30.04,WNW,302,0.0,0.0,-999,0.00,,,0.00,,2013-05-10 00:11:00,
2013-05-09 17:22:00,79.0,-99.9,30.04,WNW,302,0.0,0.0,-999,0.00,,,0.00,,2013-05-10 00:22:00,
2013-05-09 17:32:00,77.0,-99.9,30.03,WNW,291,0.0,0.0,-999,0.00,,,0.00,,2013-05-10 00:32:00,
2013-05-09 17:42:00,80.0,-99.9,30.03,WNW,289,0.0,0.0,-999,0.00,,,0.00,,2013-05-10 00:42:00,
2013-05-09 17:52:00,80.0,-99.9,30.03,WNW,289,0.0,0.0,-999,0.00,,,0.00,,2013-05-10 00:52:00,
2013-05-09 18:01:00,80.0,-99.9,30.03,WNW,289,0.0,0.0,-999,0.00,,,0.00,,2013-05-10 01:01:00,
2013-05-09 18:11:00,79.0,-99.9,30.03,NW,315,0.0,3.0,-999,0.00,,,0.00,,2013-05-10 01:11:00,
2013-05-09 18:22:00,79.0,-99.9,30.03,NW,315,0.0,3.0,-999,0.00,,,0.00,,2013-05-10 01:22:00,
2013-05-09 18:32:00,76.0,-99.9,30.03,NNW,344,1.0,5.0,-999,0.00,,,0.00,,2013-05-10 01:32:00,
2013-05-09 18:42:00,74.0,-99.9,30.04,NNW,327,1.0,0.0,-999,0.00,,,0.00,,2013-05-10 01:42:00,
2013-05-09 18:52:00,74.0,-99.9,30.04,NNW,327,1.0,0.0,-999,0.00,,,0.00,,2013-05-10 01:52:00,
2013-05-09 19:02:00,74.0,-99.9,30.04,NNW,327,1.0,0.0,-999,0.00,,,0.00,,2013-05-10 02:02:00,
2013-05-09 19:11:00,73.0,-99.9,30.05,NNW,333,2.0,2.0,-999,0.00,,,0.00,,2013-05-10 02:11:00,
2013-05-09 19:21:00,73.0,-99.9,30.05,NNW,333,2.0,2.0,-999,0.00,,,0.00,,2013-05-10 02:21:00,
2013-05-09 19:32:00,72.0,-99.9,30.05,WNW,282,1.0,3.0,-999,0.00,,,0.00,,2013-05-10 02:32:00,
2013-05-09 19:42:00,71.0,-99.9,30.06,NW,320,1.0,2.0,-999,0.00,,,0.00,,2013-05-10 02:42:00,
2013-05-09 19:53:00,71.0,-99.9,30.06,NW,320,1.0,2.0,-999,0.00,,,0.00,,2013-05-10 02:53:00,
2013-05-09 20:01:00,71.0,-99.9,30.06,North,358,0.0,0.0,-999,0.00,,,0.00,,2013-05-10 03:01:00,
2013-05-09 20:11:00,71.0,-99.9,30.07,North,350,0.0,0.0,-999,0.00,,,0.00,,2013-05-10 03:11:00,
2013-05-09 20:22:00,71.0,-99.9,30.07,North,350,0.0,0.0,-999,0.00,,,0.00,,2013-05-10 03:22:00,
2013-05-09 20:33:00,70.0,-99.9,30.08,North,350,0.0,0.0,-999,0.00,,,0.00,,2013-05-10 03:33:00,
2013-05-09 20:43:00,70.0,-99.9,30.08,North,350,0.0,0.0,-999,0.00,,,0.00,,2013-05-10 03:43:00,
2013-05-09 20:53:00,70.0,-99.9,30.08,North,350,0.0,0.0,-999,0.00,,,0.00,,2013-05-10 03:53:00,
2013-05-09 21:03:00,69.0,-99.9,30.08,North,350,0.0,0.0,-999,0.00,,,0.00,,2013-05-10 04:03:00,
2013-05-09 21:12:00,69.0,-99.9,30.09,North,350,0.0,0.0,-999,0.00,,,0.00,,2013-05-10 04:12:00,
2013-05-09 21:23:00,69.0,-99.9,30.09,North,350,0.0,0.0,-999,0.00,,,0.00,,2013-05-10 04:23:00,
2013-05-09 21:33:00,68.0,-99.9,30.10,North,350,0.0,0.0,-999,0.00,,,0.00,,2013-05-10 04:33:00,
2013-05-09 21:43:00,68.0,-99.9,30.11,North,350,0.0,0.0,-999,0.00,,,0.00,,2013-05-10 04:43:00,
2013-05-09 21:53:00,68.0,-99.9,30.11,North,350,0.0,0.0,-999,0.00,,,0.00,,2013-05-10 04:53:00,
2013-05-09 22:02:00,68.0,-99.9,30.11,NNW,331,0.0,0.0,-999,0.00,,,0.00,,2013-05-10 05:02:00,
2013-05-09 22:12:00,67.0,-99.9,30.11,NNW,331,0.0,0.0,-999,0.00,,,0.00,,2013-05-10 05:12:00,
2013-05-09 22:22:00,67.0,-99.9,30.11,NNW,331,0.0,0.0,-999,0.00,,,0.00,,2013-05-10 05:22:00,
2013-05-09 22:32:00,67.0,-99.9,30.11,NNW,331,0.0,0.0,-999,0.00,,,0.00,,2013-05-10 05:32:00,
2013-05-09 22:42:00,67.0,-99.9,30.12,NE,37,0.0,0.0,-999,0.00,,,0.00,,2013-05-10 05:42:00,
2013-05-09 22:52:00,67.0,-99.9,30.12,NE,37,0.0,0.0,-999,0.00,,,0.00,,2013-05-10 05:52:00,
2013-05-09 23:02:00,66.0,-99.9,30.12,NNW,341,0.0,0.0,-999,0.00,,,0.00,,2013-05-10 06:02:00,
2013-05-09 23:12:00,67.0,-99.9,30.12,North,358,0.0,0.0,-999,0.00,,,0.00,,2013-05-10 06:12:00,
2013-05-09 23:22:00,67.0,-99.9,30.12,North,358,0.0,0.0,-999,0.00,,,0.00,,2013-05-10 06:22:00,
2013-05-09 23:32:00,66.0,-99.9,30.13,NW,315,0.0,0.0,-999,0.00,,,0.00,,2013-05-10 06:32:00,
2013-05-09 23:42:00,66.0,-99.9,30.13,NW,315,0.0,0.0,-999,0.00,,,0.00,,2013-05-10 06:42:00,
2013-05-09 23:52:00,66.0,-99.9,30.13,NW,315,0.0,0.0,-999,0.00,,,0.00,,2013-05-10 06:52:00,